STARLINK-32524, 62159

Orbit data source: Space-Track

STARLINK-32524, 62159 is a payload satellite owned by SpaceX/Seattle (US) in LEO that was launched on Sat, 30 Nov 2024 UTC via an FALCON 9 launch vehicle from the Air Force Eastern Test Range (AFETR). Payload-class satellites include a variety of spacecraft equipped with specific instruments for various scientific and technological missions. These include communications satellites like Starlink; space stations such as the ISS; scientific satellites like the Hubble; Earth observation satellites from companies like Planet Labs, Umbra, and HawkEye 360; GPS; miniature CubeSats for education and research; and military/defense satellites.

Loading next visibility...
Identifier
62159, 2024-224W
Orbit
LEO
Country
Flag of USUS
Related business
Manufacturer
SpaceX/Seattle
Mission
Operational Commercial Communications
Bus & Motor
STARLINK V2M, Unknown motor
Mass
730 kg wet, ~700 kg dry
Launch date (UTC)
2024-11-30 (1 year ago)
Launch vehicle
FALCON 9
Launch site
Air Force Eastern Test Range (AFETR)
Object type
Payload
Rocket body
Debris
Shape & HBR
Box + 2 Pan, 17.7 m
Radar Cross Section
33.884 m², Large (>1 m²)

Expand to show TLE details & history
Last TLE update: 20 hours ago

TLE from 20 hours ago
0 STARLINK-32524
1 62159U 24224W   25348.84221235  .00012833  00000-0  47518-3 0  9991
2 62159  42.9995 280.7428 0001210 262.4388  97.6326 15.27571111 59302
Epoch: 2025-12-14T20:12Z
TLE epoch observation values (Epoch: 2025-12-14T20:12:47.147Z)
Latitude
-0.00001°
Longitude
-106.20299°
Altitude
482.961 km
Speed
7.626 km/s
True Right ascension
18h 42m 58s
True Declination
0° 00' 00"
Sunlit
Object was in daylight at epoch
Visualization orbit readout
Latitude
Unknown
Longitude
Unknown
Altitude
Unknown
Speed
Unknown
Apparent Right ascension
Unknown
Apparent Declination
Unknown
Sunlit
N/A
Visualization observer readout
Local Sidereal Time
15:09:08
Azimuth
Unknown
Elevation
Unknown
Doppler factor
Unknown
Orbital elements
Apogee altitude
485.851 km
Perigee altitude
484.191 km
Semi-major axis
6,863.158 km
Eccentricity
0.00012
Inclination
42.9995°
RAAN
280.7428°
Arg. of periapsis
262.4388°
True anomaly
97.64634°
Mean anomaly
97.6326°
Eccentric anomaly
97.63947°
Mean motion
3.81731 °/min
Orbital period
94.31 mins
BSTAR
0.00047518
Loading maneuver chart data...
Computing Atmospheric mass density...
Loading historical data...
Loading historical data...
Loading historical data...
Loading historical data...
Loading historical data...
Loading historical data...
Loading historical data...

Documentation

Showing up to 5 results
|